Temperature
27 26 24 23 23 22 22 21 21 21 20 21 20 21 21 20 20 20 19 18 18 17 17 17 17 16 16 16 16 16 16 16 16 16 17 17 18 18 18 19 18 18 18
24 22 21 21 22 21 21 21 20 20 20 21 21 21 21 20 20 20 19 19 18 17 17 17 16 16 16 16 16 16 15 15 16 16 16 17 18 18 19 19 19 19 19
18 18 17 18 20 21 21 21 21 21 20 21 21 21 20 20 20 20 19 19 18 17 17 17 16 16 16 16 15 15 15 15 15 15 16 16 17 18 19 19 20 20 20
17 17 17 17 18 19 20 20 21 21 20 20 20 20 20 20 20 20 20 19 19 18 17 17 17 16 16 16 16 15 15 15 15 15 15 15 16 16 16 18 19 19 19
16 16 16 17 18 19 19 18 19 19 19 19 19 19 20 20 20 20 19 19 19 18 17 17 16 16 16 16 16 16 16 15 15 15 15 15 15 15 15 16 17 18 19
16 16 16 16 17 18 18 18 18 18 18 18 18 18 18 18 19 19 19 19 18 18 17 17 16 16 16 16 16 16 15 15 15 14 14 14 14 15 15 15 16 17 18
16 15 15 15 15 15 15 16 16 16 16 16 16 17 17 17 17 18 18 18 18 18 18 17 17 17 16 16 15 15 15 14 14 14 14 14 14 15 15 15 15 16 17
16 16 15 15 15 14 14 14 15 15 15 15 15 15 15 15 16 16 16 17 17 17 17 17 17 17 16 16 15 15 15 14 14 14 14 14 14 14 14 15 15 15 16
17 16 16 15 14 14 14 14 14 14 15 15 15 14 14 14 14 15 15 16 16 16 16 16 16 16 16 15 15 15 15 14 14 14 14 14 14 14 14 15 15 15 15
17 16 16 15 15 14 14 13 13 13 14 14 14 14 15 15 14 14 14 14 15 15 15 15 15 15 15 15 15 15 15 15 15 14 14 14 14 14 14 14 15 15 15
16 16 15 15 14 14 14 13 12 12 12 12 12 12 13 13 14 14 14 14 14 14 14 14 14 14 14 14 14 14 14 14 14 14 14 14 14 14 14 14 14 15 15
15 15 15 14 14 13 13 12 12 12 11 11 11 11 11 11 11 12 13 13 13 14 13 13 13 14 14 14 14 14 14 14 14 14 14 14 14 14 14 14 14 14 14
15 15 14 14 13 13 12 12 11 11 11 11 11 11 11 11 10 10 11 11 12 12 13 13 13 13 13 14 14 14 14 14 14 14 14 13 14 14 14 14 14 14 14
16 16 15 14 13 13 13 12 12 11 11 11 11 11 11 10 10 10 10 10 10 10 11 12 12 12 12 13 13 13 14 14 14 13 13 13 13 14 14 14 14 14 14
16 16 15 14 14 13 13 12 12 12 11 11 11 10 10 10 10 10 10 9 9 9 10 10 11 11 12 12 13 13 13 13 13 13 13 13 13 13 14 13 13 13 13
15 15 14 14 13 13 12 12 12 12 11 11 11 11 10 10 10 10 10 10 9 9 9 9 10 10 11 11 12 13 13 13 13 13 13 13 13 13 13 13 13 12 13
14 14 13 13 13 12 12 12 11 11 11 10 10 10 10 10 10 10 10 10 10 9 9 9 9 10 10 11 12 12 13 13 13 13 13 13 13 13 13 12 12 12 12
13 13 12 12 12 12 11 11 11 10 10 10 9 9 9 9 9 9 10 10 10 9 9 9 9 10 10 10 11 12 12 12 12 12 13 12 12 12 12 12 12 11 12
13 12 12 12 11 11 11 11 10 10 9 9 9 8 8 8 8 9 9 9 9 9 9 9 9 9 10 10 10 11 11 11 12 12 12 12 12 12 12 12 12 11 11
12 12 12 11 11 11 11 10 10 9 9 8 8 8 7 7 7 8 8 8 8 9 9 9 9 9 9 10 10 10 10 11 11 12 12 12 12 12 12 12 12 12 11
12 12 11 11 11 10 10 10 9 9 8 8 7 7 6 7 7 7 7 8 8 8 8 9 9 9 9 9 10 10 10 10 11 11 12 12 12 12 12 12 12 12 12
12 11 11 11 10 10 10 9 8 8 7 6 6 6 6 6 6 6 7 7 7 7 8 8 9 9 9 9 9 9 10 10 10 11 11 12 12 12 11 11 12 12 11
11 11 10 10 10 9 8 7 6 6 5 5 5 5 5 5 6 6 6 6 7 7 7 8 9 9 9 9 9 9 9 10 10 10 11 11 12 11 11 11 11 11 11
10 10 9 8 7 7 6 5 5 4 4 4 4 4 5 5 5 5 6 6 6 7 7 8 9 9 9 9 9 9 9 9 9 9 10 11 12 11 11 11 11 11 12
9 7 6 5 5 4 4 3 3 3 3 3 4 4 4 5 5 5 5 6 6 6 7 8 8 9 9 9 9 8 8 9 9 9 9 10 11 11 11 11 11 11 12
6 5 4 3 3 3 3 3 3 3 3 3 4 4 4 4 5 5 5 5 6 6 7 7 8 8 8 8 8 8 8 8 8 8 9 10 10 10 10 11 11 11 11
Wind_Speed
11 3 4 8 12 11 9 7 7 7 4 2 2 2 2 0 0 3 6 2 1 1 1 4 4 5 5 5 5 5 7 7 6 7 8 9 10 10 9 10 9 10 10
2 10 9 7 8 9 8 6 7 8 6 5 3 2 2 1 1 2 4 3 2 0 4 3 4 6 5 6 6 6 6 7 7 6 7 7 7 7 11 10 11 11 9
18 21 18 12 7 6 5 6 7 7 5 7 4 4 3 3 3 3 3 4 2 1 1 2 4 5 5 6 5 6 7 6 6 6 6 6 5 6 6 6 6 8 9
21 19 15 14 16 14 10 7 4 4 3 4 3 2 2 2 1 2 2 4 3 4 3 3 4 4 5 6 7 5 5 6 7 6 6 8 8 8 7 8 7 7 7
18 17 13 13 15 18 19 18 15 10 7 5 6 5 5 5 3 2 3 4 5 6 6 5 4 4 5 6 6 6 6 6 7 7 7 8 8 8 8 9 7 6 5
16 14 13 12 13 15 15 15 17 18 18 16 13 10 9 9 9 8 6 4 4 6 8 7 5 4 5 5 6 7 8 7 7 7 7 8 7 7 7 8 8 8 7
15 14 14 13 13 15 14 14 15 14 14 16 17 16 13 9 10 10 9 7 5 5 5 5 3 3 5 6 7 7 8 8 8 7 7 7 8 8 8 8 7 7 6
13 13 12 12 12 12 12 12 12 11 11 11 11 12 14 12 10 11 10 8 4 3 1 3 4 5 6 7 7 7 8 7 7 9 8 7 8 8 8 8 7 7 6
10 10 9 9 9 8 9 9 9 9 10 10 10 8 9 10 11 12 11 9 8 8 5 3 4 5 6 7 7 7 8 7 7 7 8 7 7 7 8 8 8 7 6
8 8 7 7 7 6 5 6 7 8 9 9 9 10 9 8 8 9 10 10 11 10 10 8 6 6 7 7 7 7 7 7 7 6 7 7 6 6 7 7 7 7 7
10 10 9 9 9 9 9 7 7 7 8 8 9 9 10 10 9 8 7 8 9 10 11 10 9 8 8 8 8 8 8 7 7 6 7 7 7 5 6 6 6 7 7
12 12 12 11 9 9 8 8 7 8 7 7 7 8 8 9 10 10 9 9 9 9 10 11 10 10 11 10 9 8 8 6 7 6 6 7 6 6 5 5 6 7 8
15 15 14 12 11 10 10 10 10 11 11 10 9 9 9 9 9 9 10 10 10 10 10 10 11 11 11 11 10 9 8 7 6 5 6 6 6 5 4 5 6 6 7
17 16 12 9 9 10 10 11 12 12 13 12 12 11 12 11 10 10 11 11 11 11 10 10 11 11 12 12 11 10 8 6 5 5 5 5 4 4 4 4 5 5 3
19 13 11 10 9 9 8 9 10 10 11 12 12 13 13 12 12 11 12 12 12 13 11 10 10 11 11 12 11 10 10 7 6 5 4 1 4 4 3 2 3 2 2
17 17 16 14 13 11 11 11 10 10 9 9 10 11 13 14 14 13 13 13 13 13 12 11 10 10 11 14 15 12 9 6 5 4 2 5 5 6 6 6 6 5 7
21 21 19 15 13 13 11 11 10 10 10 10 11 11 11 13 14 16 14 13 13 13 12 11 10 9 9 12 13 14 9 7 6 5 4 4 7 7 7 7 8 9 11
24 21 20 19 17 16 15 11 13 12 12 12 12 12 12 13 12 12 13 12 11 10 9 9 9 9 9 8 8 11 9 8 7 6 5 7 9 8 8 7 8 7 7
21 19 22 23 18 17 15 14 15 13 14 15 13 14 14 13 13 13 12 10 10 9 9 9 10 10 6 3 4 7 7 8 8 8 8 9 9 10 10 9 10 10 9
21 20 21 21 17 14 14 15 17 15 15 15 14 14 14 14 15 13 12 11 10 10 11 10 9 9 5 0 3 7 6 8 8 7 8 11 12 11 11 10 10 11 10
21 20 19 18 15 13 13 15 15 15 15 15 14 15 14 14 15 14 12 11 11 12 12 10 8 8 5 4 5 8 5 4 4 6 7 8 15 12 11 10 9 12 11
23 23 18 17 14 13 13 15 15 14 14 15 17 17 16 17 17 12 11 10 10 11 12 11 10 8 6 7 7 10 8 4 3 4 6 10 16 13 11 9 14 16 12
22 22 20 18 14 12 12 16 15 14 16 18 19 19 18 15 14 13 12 11 9 10 11 11 10 9 6 7 10 11 9 6 0 5 6 14 17 14 10 14 17 13 6
22 22 22 22 20 18 18 17 17 16 18 19 18 16 15 14 13 11 11 10 10 9 10 10 8 6 6 7 7 7 7 7 3 1 9 16 15 11 12 11 9 6 4
22 23 23 23 24 22 22 20 19 17 17 17 16 15 13 12 11 11 10 11 9 8 6 6 5 5 6 8 10 8 6 6 5 4 6 8 9 9 9 8 6 4 4
24 24 24 25 25 24 22 20 17 16 16 14 13 10 9 9 9 9 10 12 11 9 8 8 6 4 6 9 12 10 9 11 12 8 8 9 10 10 10 9 6 5 5
Wind_Direction
224 201 136 130 124 123 128 146 163 144 172 164 155 155 116 39 63 120 115 131 228 81 22 294 341 322 295 305 319 315 301 289 273 269 269 259 250 244 236 232 234 232 222
25 29 18 59 97 111 120 140 142 146 175 125 102 103 84 289 272 78 144 178 209 213 293 357 337 316 324 309 280 269 268 280 287 289 291 286 275 260 252 230 224 226 224
48 42 21 24 45 86 139 164 137 146 170 140 173 167 163 229 228 193 184 172 172 190 293 318 300 310 301 293 312 298 286 288 293 288 287 293 287 302 291 290 256 223 215
58 57 45 28 26 27 24 36 102 153 167 168 249 248 220 242 255 214 197 151 178 213 208 226 259 275 286 292 285 294 311 295 289 286 279 273 283 289 295 301 297 275 232
60 60 47 32 30 35 30 18 20 24 6 342 327 323 300 287 276 237 192 175 218 213 207 201 221 248 264 274 293 305 291 284 283 288 292 290 286 272 269 279 286 292 270
56 55 49 37 30 34 35 23 26 24 16 10 359 339 317 312 311 307 291 245 231 211 201 190 196 234 264 289 295 288 283 276 277 281 282 282 282 281 271 267 273 279 281
53 50 45 38 33 31 28 25 26 23 20 19 15 10 357 330 301 287 276 253 248 244 191 174 159 251 275 277 271 273 275 276 276 273 273 275 278 280 279 273 271 267 272
55 53 47 40 33 29 24 21 18 15 15 16 13 19 16 7 350 336 320 301 283 284 93 146 198 236 257 271 277 284 279 283 292 290 283 278 274 274 275 271 273 275 271
51 48 44 37 27 20 17 9 5 1 3 4 356 6 9 0 354 350 348 341 335 319 315 266 232 241 254 263 272 275 279 281 284 289 290 287 281 275 271 272 267 262 266
22 20 13 9 359 348 350 348 346 343 343 347 347 346 347 342 338 342 349 351 345 336 322 304 283 267 262 261 263 274 280 291 291 288 287 290 287 284 279 273 270 257 245
348 342 338 337 335 335 341 345 343 337 333 335 336 332 331 329 326 322 334 340 338 337 326 309 290 273 263 261 259 264 275 282 295 303 309 310 305 304 297 285 269 255 238
324 318 314 312 312 314 316 313 310 301 295 294 296 299 304 310 314 316 322 323 322 324 325 317 302 284 272 262 259 263 275 284 292 301 311 310 316 323 312 305 285 263 239
312 305 297 292 287 282 279 277 274 272 270 269 270 274 279 283 286 291 298 305 308 309 313 316 311 299 285 274 265 257 260 264 276 293 303 305 313 322 329 319 305 282 252
308 303 296 285 281 273 265 262 263 262 261 256 255 258 263 266 269 273 277 280 284 289 294 303 309 307 298 283 270 259 254 254 264 277 282 292 323 341 338 330 317 302 260
314 323 329 321 311 306 297 288 278 274 269 263 259 258 258 258 259 261 264 267 270 273 274 280 290 300 301 287 276 260 252 239 243 260 269 36 70 50 29 7 345 351 109
331 331 323 318 314 311 306 300 293 289 280 277 278 272 265 261 258 256 256 256 259 260 261 260 264 276 288 303 300 276 253 238 232 240 213 142 126 103 87 71 59 70 106
329 322 319 315 310 307 300 293 295 298 299 294 290 287 282 275 263 260 256 250 251 253 253 258 258 263 276 293 285 262 242 225 222 217 206 186 140 141 124 105 86 78 87
321 318 315 310 304 300 298 295 297 294 294 294 294 294 291 289 285 270 261 257 255 254 255 259 262 265 278 303 278 252 240 228 216 197 183 148 154 159 151 136 109 100 100
315 312 308 304 301 298 294 291 290 289 289 290 290 291 289 287 288 287 278 271 265 260 257 260 259 262 264 305 260 231 241 229 215 192 174 159 158 158 158 132 115 106 97
309 304 303 300 296 292 290 287 287 285 285 287 288 289 287 283 281 281 283 283 280 271 261 254 255 260 250 170 200 199 240 238 215 185 166 161 151 151 151 142 132 124 123
306 304 301 299 296 291 287 284 286 287 291 292 293 290 285 280 276 272 269 270 273 272 267 261 258 257 235 166 171 180 210 256 240 190 168 152 147 146 143 145 137 139 138
309 308 305 300 294 290 290 293 295 299 300 299 296 290 283 277 274 269 267 263 264 268 265 258 253 252 219 181 174 171 183 189 294 253 179 156 155 150 147 142 145 152 150
312 311 308 304 303 305 308 306 305 304 299 295 290 285 280 273 267 264 264 262 257 258 257 252 245 239 212 184 188 183 170 144 238 282 197 157 152 142 137 145 154 165 175
318 319 319 319 319 320 318 311 305 300 295 290 286 281 276 271 264 256 254 254 250 248 250 250 245 217 186 192 192 192 162 124 78 317 150 144 146 139 135 148 161 191 183
328 331 328 323 318 315 309 303 299 293 286 283 281 277 272 267 264 259 252 248 243 237 248 257 243 203 196 206 191 186 166 144 129 142 156 149 144 141 148 161 178 181 145
332 327 322 316 312 308 303 299 294 287 283 280 277 272 268 266 261 256 256 238 228 226 244 251 248 203 178 167 170 169 154 142 146 163 175 161 152 153 158 166 169 158 144
Height
1461 1459 1457 1456 1457 1467 1473 1478 1482 1483 1487 1491 1494 1496 1499 1501 1502 1502 1501 1501 1502 1502 1501 1501 1500 1500 1499 1499 1498 1497 1496 1495 1495 1495 1492 1491 1490 1489 1489 1489 1490 1491 1492
1458 1455 1453 1447 1458 1470 1477 1481 1483 1485 1487 1490 1492 1495 1497 1499 1501 1501 1500 1500 1500 1500 1500 1499 1497 1496 1496 1495 1494 1493 1492 1491 1492 1491 1489 1487 1486 1485 1484 1483 1483 1484 1485
1464 1461 1460 1458 1469 1477 1480 1483 1486 1487 1489 1490 1492 1494 1496 1498 1499 1499 1499 1498 1498 1498 1496 1495 1493 1492 1492 1491 1491 1490 1489 1488 1488 1488 1488 1485 1481 1480 1479 1479 1478 1478 1479
1472 1473 1473 1477 1479 1481 1481 1483 1486 1488 1490 1491 1492 1494 1496 1497 1497 1497 1497 1496 1496 1495 1494 1492 1491 1490 1489 1488 1487 1487 1486 1484 1483 1483 1483 1482 1481 1479 1475 1474 1474 1474 1474
1478 1478 1483 1484 1483 1480 1480 1482 1484 1487 1489 1490 1491 1492 1493 1495 1495 1495 1494 1493 1493 1492 1491 1489 1488 1487 1486 1485 1484 1483 1482 1480 1479 1478 1478 1477 1476 1475 1474 1471 1471 1471 1471
1480 1482 1483 1484 1483 1481 1481 1483 1484 1485 1486 1486 1487 1488 1490 1491 1492 1492 1491 1490 1490 1489 1488 1487 1485 1484 1483 1482 1481 1479 1478 1476 1475 1474 1473 1473 1472 1471 1470 1468 1467 1467 1467
1484 1485 1486 1486 1485 1484 1484 1483 1484 1484 1484 1484 1483 1483 1484 1485 1486 1488 1487 1487 1486 1486 1485 1484 1482 1482 1481 1479 1477 1476 1474 1473 1471 1470 1468 1468 1467 1467 1466 1465 1464 1464 1463
1490 1489 1489 1489 1489 1488 1487 1486 1485 1485 1483 1482 1482 1480 1479 1479 1480 1480 1480 1481 1482 1482 1481 1479 1479 1478 1477 1476 1475 1473 1471 1469 1467 1465 1464 1462 1461 1461 1461 1461 1461 1459 1459
1495 1494 1493 1492 1491 1490 1489 1488 1486 1485 1483 1482 1481 1480 1478 1477 1476 1475 1474 1474 1475 1476 1476 1475 1474 1473 1473 1472 1471 1469 1467 1465 1463 1461 1459 1458 1456 1455 1455 1455 1456 1456 1455
1498 1496 1495 1494 1493 1492 1490 1487 1485 1483 1481 1479 1478 1477 1475 1474 1473 1472 1470 1468 1468 1468 1468 1469 1469 1469 1468 1467 1467 1465 1464 1462 1459 1457 1455 1454 1452 1450 1449 1449 1449 1450 1450
1499 1497 1495 1493 1491 1490 1488 1486 1483 1480 1478 1476 1473 1471 1469 1468 1467 1466 1465 1464 1463 1462 1462 1462 1462 1463 1463 1463 1462 1461 1459 1457 1455 1454 1452 1450 1448 1446 1445 1443 1442 1442 1443
1499 1496 1493 1490 1488 1486 1484 1482 1480 1478 1475 1472 1469 1466 1464 1462 1460 1458 1457 1457 1457 1457 1456 1456 1456 1456 1456 1457 1457 1456 1455 1453 1451 1450 1449 1447 1445 1443 1441 1439 1437 1436 1436
1495 1492 1489 1486 1483 1481 1479 1477 1475 1472 1470 1467 1464 1462 1459 1457 1454 1452 1450 1449 1448 1448 1449 1449 1448 1449 1449 1450 1451 1450 1449 1448 1448 1446 1445 1444 1442 1440 1438 1435 1432 1430 1430
1490 1486 1483 1480 1478 1476 1474 1471 1469 1466 1464 1461 1458 1455 1453 1451 1448 1446 1444 1441 1440 1439 1439 1440 1441 1441 1441 1442 1444 1444 1444 1443 1443 1443 1442 1441 1439 1437 1435 1432 1429 1426 1425
1485 1481 1479 1477 1474 1472 1469 1467 1464 1461 1458 1455 1452 1449 1447 1444 1442 1440 1438 1436 1434 1431 1430 1431 1432 1433 1434 1435 1437 1438 1438 1438 1439 1439 1439 1438 1437 1435 1433 1430 1427 1425 1423
1480 1478 1476 1473 1470 1466 1463 1460 1458 1455 1452 1449 1446 1444 1441 1438 1436 1434 1432 1430 1429 1427 1426 1424 1424 1425 1426 1428 1429 1431 1432 1433 1434 1435 1435 1435 1434 1433 1431 1429 1427 1425 1424
1478 1474 1471 1467 1463 1460 1456 1453 1450 1447 1445 1442 1439 1437 1434 1431 1429 1427 1425 1424 1423 1422 1421 1421 1420 1421 1421 1421 1421 1423 1425 1427 1429 1431 1432 1433 1432 1432 1431 1430 1429 1428 1428
1473 1469 1465 1461 1457 1453 1449 1445 1442 1440 1437 1434 1431 1429 1427 1424 1422 1420 1418 1417 1417 1417 1416 1416 1416 1416 1415 1414 1414 1415 1417 1421 1424 1426 1428 1429 1431 1432 1432 1432 1432 1432 1432
1468 1464 1459 1454 1448 1445 1441 1437 1434 1431 1429 1426 1423 1421 1419 1416 1414 1412 1411 1410 1410 1410 1410 1410 1410 1410 1409 1408 1408 1408 1410 1414 1418 1422 1424 1426 1429 1431 1432 1433 1433 1435 1436
1462 1456 1450 1445 1440 1436 1432 1428 1424 1422 1419 1416 1414 1411 1409 1407 1405 1403 1402 1402 1402 1403 1403 1403 1403 1404 1403 1402 1402 1403 1404 1408 1413 1417 1420 1423 1426 1429 1431 1433 1435 1436 1439
1453 1448 1442 1436 1431 1427 1422 1417 1414 1411 1409 1406 1403 1401 1399 1397 1395 1394 1394 1394 1394 1395 1396 1396 1397 1397 1397 1397 1397 1398 1399 1403 1407 1412 1416 1420 1424 1427 1430 1433 1435 1438 1441
1445 1439 1433 1427 1422 1418 1412 1406 1403 1401 1398 1395 1392 1389 1388 1387 1386 1385 1384 1385 1386 1387 1387 1389 1390 1391 1392 1392 1392 1393 1394 1397 1401 1406 1411 1416 1421 1425 1429 1432 1435 1439 1442
1437 1431 1425 1417 1412 1408 1403 1396 1392 1389 1385 1382 1379 1377 1375 1375 1375 1375 1375 1376 1377 1379 1380 1382 1383 1384 1385 1386 1387 1388 1389 1392 1396 1399 1405 1412 1418 1423 1427 1431 1435 1439 1443
1430 1423 1416 1408 1402 1397 1391 1386 1380 1376 1372 1369 1366 1365 1364 1363 1364 1365 1366 1367 1369 1371 1373 1375 1377 1378 1379 1380 1381 1382 1384 1388 1392 1396 1401 1408 1415 1420 1425 1430 1435 1439 1443
1424 1416 1408 1400 1392 1385 1378 1372 1367 1363 1359 1356 1354 1354 1353 1354 1355 1356 1357 1359 1361 1364 1366 1369 1371 1373 1374 1376 1377 1379 1381 1385 1389 1394 1399 1405 1412 1418 1423 1429 1434 1438 1441
1418 1409 1400 1391 1381 1373 1366 1360 1355 1351 1348 1346 1345 1345 1345 1345 1346 1347 1349 1351 1354 1357 1360 1363 1367 1369 1371 1372 1374 1377 1380 1384 1389 1395 1400 1405 1410 1416 1422 1427 1432 1436 1440